TimeCST,TemperatureF,Dew PointF,Humidity,Sea Level PressureIn,VisibilityMPH,Wind Direction,Wind SpeedMPH,Gust SpeedMPH,PrecipitationIn,Events,Conditions,WindDirDegrees,DateUTC
12:00 AM,74,72,92,29.99,12,Calm,Calm,,,,Clear,,2014-03-01 06:00:00
3:00 AM,74,71,89,29.97,12,ESE,3.5,,,,Scattered Clouds,110,2014-03-01 09:00:00
5:00 AM,75.2,71.6,89,29.97,6.2,East,3.5,-,N/A,,Partly Cloudy,100,2014-03-01 11:00:00
6:00 AM,75,72,87,30.00,12,East,3.5,,,,Scattered Clouds,100,2014-03-01 12:00:00
6:00 AM,75.2,71.6,89,29.99,6.2,East,3.5,-,N/A,,Partly Cloudy,100,2014-03-01 12:00:00
7:00 AM,77.0,71.6,83,30.02,6.2,ESE,4.6,-,N/A,,Partly Cloudy,110,2014-03-01 13:00:00
8:00 AM,80.6,73.4,79,30.05,6.2,East,5.8,-,N/A,,Partly Cloudy,100,2014-03-01 14:00:00
9:00 AM,82,72,65,30.08,14,East,8.1,,,,Partly Cloudy,100,2014-03-01 15:00:00
9:00 AM,82.4,71.6,70,30.07,6.2,East,8.1,-,N/A,,Scattered Clouds,100,2014-03-01 15:00:00
10:00 AM,82.4,71.6,70,30.08,6.2,East,9.2,-,N/A,,Scattered Clouds,100,2014-03-01 16:00:00
11:00 AM,84.2,71.6,66,30.08,6.2,East,9.2,-,N/A,,Scattered Clouds,80,2014-03-01 17:00:00
12:00 PM,84,72,60,30.06,14,ESE,6.9,,,,Partly Cloudy,110,2014-03-01 18:00:00
12:00 PM,84.2,77.0,79,30.06,6.2,ESE,6.9,-,N/A,,Scattered Clouds,110,2014-03-01 18:00:00
1:00 PM,84.2,71.6,66,30.04,6.2,North,-9999.0,-,N/A,,Scattered Clouds,0,2014-03-01 19:00:00
2:00 PM,84.2,71.6,66,30.02,6.2,East,10.4,-,N/A,,Scattered Clouds,80,2014-03-01 20:00:00
3:00 PM,84,72,58,30.01,14,East,10.4,,,,Partly Cloudy,80,2014-03-01 21:00:00
3:00 PM,84.2,71.6,66,30.00,6.2,East,10.4,-,N/A,,Scattered Clouds,80,2014-03-01 21:00:00
4:00 PM,84.2,71.6,66,30.00,6.2,East,9.2,-,N/A,,Partly Cloudy,90,2014-03-01 22:00:00
5:00 PM,82.4,71.6,70,30.01,6.2,East,8.1,-,N/A,,Partly Cloudy,90,2014-03-01 23:00:00
6:00 PM,80,71,67,30.02,14,East,6.9,,,,Partly Cloudy,90,2014-03-02 00:00:00
6:00 PM,80.6,71.6,74,30.02,6.2,East,6.9,-,N/A,,Scattered Clouds,90,2014-03-02 00:00:00
7:00 PM,78.8,71.6,78,30.03,6.2,ESE,3.5,-,N/A,,Scattered Clouds,110,2014-03-02 01:00:00
8:00 PM,77.0,69.8,78,30.05,6.2,East,4.6,-,N/A,,Partly Cloudy,100,2014-03-02 02:00:00
9:00 PM,77,69,71,30.06,14,ESE,4.6,,,,Scattered Clouds,110,2014-03-02 03:00:00